www.pogodaiklimat.ru

Погода и климат >> Архив погоды >> Египет >> Sallum Plateau


ПОГОДА в Sallum Plateau

  • Прогноз погоды в Sallum Plateau
  • Монитор погоды в Sallum Plateau
  • Климат города

АРХИВ ПОГОДЫ в Sallum Plateau

Время (UTC), дата Ветер
(напр.,м/с)
 
Видим.   Явления Облачность Т
(С)
Тd
(С)
f
(%)
Тe
(С)
Тes
(С)
Комфортность P
(гПа)
Po
(гПа)
Тmin
(С)
Tmax
(С)
R
(мм)
R24
(мм)
S
(см)
15 9.07 СЗ 8 10 км 1/1 600 м
[Cu hum]
+28.2 +19.3 59 +34 +35 очень
душно
1009.6 1010.0
18 9.07 СЗ 8 10 км ясно +24.6 +19.1 71 +30 +30 очень
душно
1010.4 1010.0 +30.4
21 9.07 СЗ 1 10 км ясно +23.0 +19.8 82 +30 +30 очень
душно
1011.4 1011.0
00 10.07 С 4 10 км ясно +22.1 +19.5 85 +28 +28 душно 1010.2 1010.0
03 10.07 СЗ 3 10 км ясно +20.6 +18.8 89 +25 +25 комфорт 1010.4 1010.0
06 10.07 СЗ 4 10 км 3/3 600 м
[Cu med, cong]
+24.0 +19.1 74 +29 +32 душно 1011.8 1012.0 +20.2
09 10.07 С 6 10 км 3/3 600 м
[Cu med, cong]
+27.7 +15.4 47 +31 +37 душно 1012.2 1012.0
12 10.07 СВ 9 10 км 3/3 600 м
[Cu med, cong]
+28.0 +18.9 58 +33 +35 очень
душно
1011.2 1011.0
15 10.07 С 8 10 км ясно +28.3 +14.3 42 +30 +31 жарко 1011.4 1011.0
18 10.07 С 6 10 км ясно +24.9 +18.0 66 +29 +29 душно 1012.0 1012.0 +29.3
21 10.07 СЗ 5 10 км ясно +22.4 +20.0 86 +29 +29 очень
душно
1012.1 1012.0
00 11.07 С 3 10 км ясно +21.2 +19.2 88 +26 +26 душно 1011.2 1011.0
03 11.07 СЗ 2 10 км ясно +19.6 +18.6 94 +23 +23 комфорт 1011.0 1011.0
06 11.07 СЗ 5 10 км ясно +24.1 +20.2 79 +30 +33 очень
душно
1012.5 1013.0 +19.5
09 11.07 С 6 10 км ясно +28.7 +13.5 39 +30 +38 жарко 1012.3 1012.0
12 11.07 С 6 10 км ясно +30.6 +15.2 39 +33 +40 душно 1011.8 1012.0
15 11.07 С 8 10 км ясно +29.1 +15.1 43 +32 +33 душно 1011.4 1011.0
18 11.07 СЗ 7 10 км ясно +24.8 +17.9 65 +29 +29 душно 1012.0 1012.0 +30.7
21 11.07 СЗ 6 10 км ясно +22.6 +19.1 81 +29 +29 очень
душно
1012.3 1012.0
00 12.07 СЗ 5 10 км ясно +21.4 +19.5 89 +26 +26 душно 1011.0 1011.0
03 12.07 С 3 10 км ясно +20.4 +19.2 93 +25 +25 комфорт 1011.1 1011.0
06 12.07 СЗ 8 10 км ясно +24.4 +19.4 74 +30 +31 очень
душно
1011.7 1012.0 +20.1
09 12.07 СЗ 7 10 км ясно +28.5 +16.5 48 +32 +37 душно 1018.4 1018.0
12 12.07 С 9 10 км ясно +29.5 +17.2 48 +34 +36 очень
душно
1011.3 1011.0
15 12.07 С 10 10 км ясно +28.0 +18.8 57 +33 +33 очень
душно
1010.7 1011.0
18 12.07 СЗ 8 10 км ясно +24.7 +19.3 72 +30 +30 очень
душно
1010.8 1011.0 +30.0
21 12.07 СЗ 8 10 км ясно +23.0 +20.8 87 +30 +30 очень
душно
1011.0 1011.0
00 13.07 СЗ 7 10 км ясно +22.2 +21.1 93 +29 +29 очень
душно
1009.8 1010.0
03 13.07 СЗ 7 10 км ясно +22.0 +22.0 100 +29 +29 очень
душно
1009.2 1009.0
06 13.07 СВ 8 10 км ясно +25.0 +20.7 77 +31 +32 очень
душно
1009.8 1010.0 +21.8
09 13.07 С 8 10 км ясно +29.3 +18.0 51 +34 +37 очень
душно
1009.9 1010.0
12 13.07 С 8 10 км ясно +31.2 +18.4 47 +36 +40 очень
душно
1008.4 1008.0
15 13.07 СЗ 10 10 км ясно +29.0 +18.9 54 +34 +34 очень
душно
1008.0 1008.0
18 13.07 СЗ 9 10 км ясно +25.2 +20.8 77 +32 +32 очень
душно
1008.7 1009.0 +31.4
21 13.07 СЗ 7 10 км ясно +26.6 +22.3 77 +35 +35 очень
душно
1009.0 1009.0
00 14.07 СЗ 8 10 км ясно +23.0 +22.9 99 +32 +32 очень
душно
1007.8 1008.0
03 14.07 СЗ 8 10 км ясно +22.5 +22.5 100 +30 +30 очень
душно
1007.2 1007.0
06 14.07 СЗ 9 10 км ясно +25.4 +22.4 83 +33 +34 очень
душно
1007.9 1008.0 +22.5
09 14.07 С 7 10 км ясно +30.5 +18.9 50 +36 +41 очень
душно
1008.2 1008.0
12 14.07 С 9 10 км ясно +32.3 +16.0 38 +35 +37 очень
душно
1007.4 1007.0
15 14.07 С 9 10 км ясно +30.6 +16.7 43 +34 +34 очень
душно
1006.9 1007.0
18 14.07 СЗ 9 10 км ясно +29.3 +20.2 58 +36 +36 очень
душно
1007.6 1008.0 +32.5
21 14.07 СЗ 7 10 км ясно +24.3 +21.1 82 +31 +31 очень
душно
1008.1 1008.0
00 15.07 СЗ 7 10 км ясно +23.3 +22.0 92 +32 +32 очень
душно
1007.4 1007.0
06 15.07 СЗ 9 10 км ясно +25.5 +22.1 81 +33 +33 очень
душно
1007.8 1008.0 +22.8
09 15.07 С 10 10 км ясно +29.8 +17.9 49 +34 +35 очень
душно
1008.1 1008.0
12 15.07 С 8 10 км ясно +31.3 +15.4 38 +34 +37 душно 1007.7 1008.0
15 15.07 С 9 10 км ясно +30.0 +16.5 44 +33 +34 душно 1007.1 1007.0
18 15.07 С 7 10 км ясно +25.8 +20.0 70 +32 +32 очень
душно
1006.5 1007.0 +31.4
21 15.07 СЗ 6 10 км ясно +23.7 +22.8 95 +31 +31 очень
душно
1007.9 1008.0

 

Местоположение метеостанции Sallum Plateau (Египет): широта 31.57 долгота 25.13 высота над уровнем моря 6 м.

В архиве по умолчанию представлена погода в Sallum Plateau за последнюю неделю. Архивные данные за месяц целиком и за предыдущие месяцы, начиная с января 2011 года, Вы можете получить, выбрав интересующий диапазон дат из раскрывающегося списка и нажав кнопку "Ввод!".


*Определитесь, кто Вы:
робот инопланетянин человек

Внимание! Время в таблицах - всемирное. Для получения местного времени необходимо прибавить поправку, которая в Sallum Plateau равна 2 ч.

Смотрите также архив погоды в соседних городах и на ближайших метеорологических станциях:

Погода в Mersa Matruh (Египет) (200 км)
Погода в Siwa (Египет) (264 км)
Погода в Dabaa (Египет) (325 км)
Погода в Kasteli (Греция) (402 км)
Погода в Sitia (Греция) (414 км)
Погода в Al-Marj (Ливия) (414 км)
Погода в Heraklion (Греция) (418 км)
Погода в Jalo (Ливия) (443 км)
Погода в Souda (Греция) (445 км)
Погода в Alexandria (Египет) (459 км)

Пояснения к столбцам:

Ветер - указаны скорость ветра в м/с - средняя за 10 мин, порывы в срок и между сроками (в фигурных скобках) и направление, откуда дует ветер: С - северный, СВ - северо-восточный, В - восточный, ЮВ - юго-восточный, Ю - южный, ЮЗ - юго-западный, З - западный, СЗ - северо-западный.
Видимость - горизонтальная дальность видимости в метрах или километрах. При видимости от 1 до 10 км при отсутствии осадков обычно наблюдается дымка, при ухудшении видимости до 1 км и менее - туман. В сухую погоду видимость может ухудшаться дымом, пылью или мглою.
Явления - указаны атмосферные явления, наблюдавшиеся в срок или в последний час перед сроком; фигурными скобками обозначены явления, наблюдавшиеся между сроками (за 1-3 часа до срока); квадратными скобками обозначены град или гололедные отложения с указанием их диаметра в мм.
Облачность - указаны через наклонную черту общая и нижняя облачность в баллах и высота нижней границы облаков в метрах; квадратными скобками обозначены формы облаков: Ci - перистые, Cs - перисто-слоистые, Cc - перисто-кучевые, Ac - высококучевые, As - высокослоистые, Sc - слоисто-кучевые, Ns - слоисто-дождевые, Cu - кучевые, Cb - кучево-дождевые. Подробнее классификацию облаков см. в Атласе облаков (PDF).
T - Температура воздуха - температура, измеренная на высоте 2 м над землей.
Td - Температура точки росы - температура, при понижении до которой содержащийся в воздухе водяной пар достигнет насыщения.
f - Относительная влажность воздуха - влажноcть воздуха, измеренная на высоте 2 м над землей.
Te - Эффективная температура - температура, которую ощущает одетый по сезону человек в тени. Характеристика душности погоды. При расчете учитывается влияние влажности воздуха и скорости ветра на теплоощущения человека.
Tes - Эффективная температура на солнце - температура, которую ощущает человек, с поправкой на солнечный нагрев. Характеристика знойности погоды. Зависит от высоты солнца над горизонтом, облачности и скорости ветра. Ночью, в пасмурную погоду, а также при ветре 12 м/с и более поправка равна нулю.
P - Атмосферное давление - приведенное к уровню моря атмосферное давление.
Po - Атмосферное давление - измеренное на уровне метеостанции атмосферное давление.
Tmin - Минимальная температура - минимум температуры воздуха на высоте 2 м над землей.
Tmax - Максимальная температура - максимум температуры воздуха на высоте 2 м над землей.
R - Количество осадков - Количество выпавших осадков за период времени, мм. При наведении курсора мыши на число - период времени, за который выпало указанное количество осадков.
R24 - Количество осадков - Количество выпавших осадков за 24 часа, мм.
S - Снежный покров - Высота снежного покрова, см. При наведении курсора мыши на число - состояние снежного покрова и степень покрытия местности в баллах.